Regional Weather Roundup
Issued by NWS

Home | Current Version | Previous Version | Graphics & Text | Print | Product List | Glossary On
Versions: 1 2 3 4 5 6 7 8 9 10 11 12 13 14 15 16 17 18 19 20 21 22 23 24 25 26 27 28 29 30 31 32 33 34 35 36 37 38 39 40 41 42 43 44 45 46 47 48 49 50
134
ASUS45 KBOU 240210
RWRCO

WEATHER ROUNDUP FOR COLORADO
NATIONAL WEATHER SERVICE PUEBLO CO
700 PM MST FRI FEB 23 2018

NOTE: "FAIR" INDICATES FEW OR NO CLOUDS BELOW 12000 FEET WITH NO
SIGNIFICANT WEATHER AND/OR OBSTRUCTIONS TO VISIBILITY.

COZ001>005-013-030-031-240300-
...NORTHWEST COLORADO...

CITY           SKY/WX    TMP DP  RH WIND       PRES   REMARKS
CRAIG          LGT SNOW  25  20  81 W17G23    29.90R WCI  12
HAYDEN         CLOUDY    24  16  71 SW13      29.88R WCI  12
MEEKER         LGT SNOW  25  18  74 W16       29.90R WCI  12
RABBIT EARS PA NOT AVBL
STEAMBOAT SPGS CLOUDY    24  15  67 SE5       29.87R WCI  18
WALDEN         CLOUDY    18  10  73 CALM      29.83R
$$

COZ006>008-011-240300-
...WEST CENTRAL VALLEYS...

CITY           SKY/WX    TMP DP  RH WIND       PRES   REMARKS
GRAND JUNCTION MOCLDY    30  26  85 NW12      29.95R WCI  20
MONTROSE       CLOUDY    26  23  88 SE12      29.96S WCI  16
EAGLE          LGT SNOW  24  20  84 SW8       29.92  FOG     WCI  15
RIFLE          CLOUDY    26  23  88 CALM      29.93S
DELTA          NOT AVBL
NUCLA          CLOUDY    25  21  86 E8        29.98S WCI  16
$$

COZ017>023-064>068-240300-
...SOUTHWEST COLORADO...

CITY           SKY/WX    TMP DP  RH WIND       PRES   REMARKS
DURANGO        LGT SNOW  26  24  92 W8G21     29.91R VSB 3/4 WCI  18
CORTEZ         CLOUDY    26  23  88 E7        29.95S WCI  18
PAGOSA SPRINGS FAIR      23  13  65 W3        29.86F
TELLURIDE      LGT SNOW  17  13  84 W10G20    29.87R WCI   5
WOLF CREEK PAS CLOUDY     9   9 100 S21G31    29.82F WCI -11
$$

COZ009-010-012-014-032>034-037-058>063-240300-
...CENTRAL COLORADO...

CITY           SKY/WX    TMP DP  RH WIND       PRES   REMARKS
ASPEN          LGT SNOW  20  17  88 N5        29.86R FOG     WCI  13
BUENA VISTA    CLOUDY    29   1  29 SW14G22   29.82R WCI  19
COPPER MTN     LGT SNOW  14   9  79 S7        29.76S VSB 1   WCI   4
BERTHOUD PASS  SNOW       5  -6  61 SW6       29.75S VSB 1/4 WCI  -6
COTTONWOOD PAS CLOUDY    27  10  50 S17G24    29.80R WCI  14
GUNNISON       CLOUDY    23  17  78 SW9       29.87R WCI  13
KREMMLING      MOCLDY    32  14  47 CALM      29.84R
LEADVILLE      CLOUDY    13   9  84 NW5       29.78R WCI   5
MONARCH PASS   MOCLDY     9   1  72 SW32      29.87S WCI -15
SALIDA         FAIR      32   3  29 SW9G17    29.90R WCI  24
SUNLIGHT       LGT SNOW   9   5  85 SW10G23   29.83R WCI  -6
WILKERSON PASS MOCLDY    12   3  67 SW10G17   29.81S WCI  -1
$$

COZ069>075-240300-
...SAN LUIS VALLEY/SANGRE DE CRISTO MOUNTAINS...

CITY           SKY/WX    TMP DP  RH WIND       PRES   REMARKS
ALAMOSA        CLOUDY    30   9  41 SW5       29.82F WCI  25
DEL NORTE      FAIR      24  10  56 W7        29.84S WCI  16
LA VETA PASS   CLOUDY    27   9  46 S9G24     29.93F WCI  17
SAGUACHE       PTCLDY    27   9  46 W8        29.85F WCI  18
$$

COZ035-036-038>040-240300-
...NORTHERN COLORADO FRONT RANGE...

CITY           SKY/WX    TMP DP  RH WIND       PRES   REMARKS
DENVER INTL AP CLOUDY    24  20  84 W14       29.90R FOG     WCI  12
DMNS CITY PARK NOT AVBL
AURORA         CLOUDY    25  20  83 W6        29.91R WCI  18
FRONT RANGE AP CLOUDY    27  25  93 W10       29.91R FOG     WCI  17
ERIE MUNI ARPT CLOUDY    26  25  93 CALM      29.99R FOG
BOULDER MUN AP LGT SNOW  27  27 100 CALM      29.92S VSB 3/4
CENTENNIAL     CLOUDY    25  19  78 N7        29.90R WCI  17
BROOMFIELD     LGT SNOW  27  25  93 NW9       29.91R WCI  17
LOVELAND       LGT SNOW  25  21  86 N13       29.95R VSB 1   WCI  13
LONGMONT       SNOW      29  26  90 CALM      29.96R VSB 1/2
$$

COZ041-046-047-076>085-087-088-240300-
...PIKES PEAK/PALMER DIVIDE AND SOUTHERN FOOTHILLS...

CITY           SKY/WX    TMP DP  RH WIND       PRES   REMARKS
COLO. SPRINGS  PTCLDY    22  18  85 SE10      29.89R WCI  11
A. F. ACADEMY  CLEAR     24  17  73 S8        29.87R WCI  15
SCHRIEVER AFB  NOT AVBL
CHEYENNE MTN   NOT AVBL
ELLICOTT       CLOUDY   N/A N/A N/A SE7       29.88S
FALCON         FAIR      19  17  93 S6        29.87F WCI  10
FORT CARSON    CLOUDY    23  19  86 SE8       29.89R WCI  14
LIMON          CLOUDY    22  21  96 S16G22    29.92S WCI   8
MONUMENT HILL  CLOUDY    21  19  93 N3        29.87S FOG
CANON CITY     CLOUDY    30  21  69 E7        29.91R WCI  23
WALSENBURG     CLOUDY    27  23  86 NE8       29.87S WCI  18
TRINIDAD       PTCLDY    28  20  71 N8        29.86R WCI  20
$$

COZ042>045-048>051-090-091-240300-
...NORTHEAST COLORADO...

CITY           SKY/WX    TMP DP  RH WIND       PRES   REMARKS
GREELEY ARPT   CLOUDY    29  24  82 E10       29.95R WCI  20
AKRON          CLOUDY    27  23  85 E20G26    29.95R WCI  13
BURLINGTON     CLOUDY    28  23  81 SE9       29.99S WCI  19
WRAY           CLOUDY    30  25  80 E9        30.03R WCI  22
YUMA           NOT AVBL
STERLING       CLOUDY    30  21  69 E10       29.99S WCI  21
HOLYOKE        CLOUDY    30  23  74 E14       30.03F WCI  20
FORT MORGAN    CLOUDY    30  21  70 E14       29.97R WCI  19
$$

COZ086-089-092>099-240300-
...SOUTHEAST COLORADO...

CITY           SKY/WX    TMP DP  RH WIND       PRES   REMARKS
PUEBLO         CLOUDY    29  22  75 E9        29.93R WCI  20
LA JUNTA       CLOUDY    29  24  82 E20       29.94R WCI  16
LAMAR          CLOUDY    29  24  82 E13       29.97R WCI  19
SPRINGFIELD      N/A     26  26 100 SE14      29.92S WCI  14
$$





USA.gov is the U.S. government's official web portal to all federal, state and local government web resources and services.